owner,sensor,date,latitude,longitude,vertical_datum,sea_water_temperature,qcFlag
BP,ioos:station:wmo:42374:1,2021-02-01T00:14:00Z,28.8662,-88.0563,2.4,21.6,11111222
BP,ioos:station:wmo:42374:1,2021-02-01T00:34:00Z,28.8662,-88.0563,2.7,21.5,11111222
BP,ioos:station:wmo:42374:1,2021-02-01T00:54:00Z,28.8662,-88.0563,2.5,21.6,11111222
BP,ioos:station:wmo:42374:1,2021-02-01T01:14:00Z,28.8662,-88.0563,2.7,21.5,11111222
BP,ioos:station:wmo:42374:1,2021-02-01T01:34:00Z,28.8662,-88.0563,2.5,21.5,11111222
BP,ioos:station:wmo:42374:1,2021-02-01T01:54:00Z,28.8662,-88.0563,2.7,21.5,11111222
BP,ioos:station:wmo:42374:1,2021-02-01T02:14:00Z,28.8662,-88.0563,2.5,21.5,11111222
BP,ioos:station:wmo:42374:1,2021-02-01T02:34:00Z,28.8662,-88.0563,2.5,21.5,11111222
BP,ioos:station:wmo:42374:1,2021-02-01T02:54:00Z,28.8662,-88.0563,2.5,21.5,11111222
BP,ioos:station:wmo:42374:1,2021-02-01T03:14:00Z,28.8662,-88.0563,2.5,21.5,11111222
BP,ioos:station:wmo:42374:1,2021-02-01T03:34:00Z,28.8662,-88.0563,2.2,21.5,11111222
BP,ioos:station:wmo:42374:1,2021-02-01T03:54:00Z,28.8662,-88.0563,2.7,21.6,11111222
BP,ioos:station:wmo:42374:1,2021-02-01T04:14:00Z,28.8662,-88.0563,2.9,21.7,11111222
BP,ioos:station:wmo:42374:1,2021-02-01T04:34:00Z,28.8662,-88.0563,2.8,21.7,11111222
BP,ioos:station:wmo:42374:1,2021-02-01T04:54:00Z,28.8662,-88.0563,3.2,21.7,11111222
BP,ioos:station:wmo:42374:1,2021-02-01T05:14:00Z,28.8662,-88.0563,2.9,21.6,11111222
BP,ioos:station:wmo:42374:1,2021-02-01T05:34:00Z,28.8662,-88.0563,3.0,21.7,11111222
BP,ioos:station:wmo:42374:1,2021-02-01T05:54:00Z,28.8662,-88.0563,3.2,21.7,11111222
BP,ioos:station:wmo:42374:1,2021-02-01T06:14:00Z,28.8662,-88.0563,3.2,21.7,11111222
BP,ioos:station:wmo:42374:1,2021-02-01T06:34:00Z,28.8662,-88.0563,3.2,21.7,11111222
BP,ioos:station:wmo:42374:1,2021-02-01T06:54:00Z,28.8662,-88.0563,2.7,21.7,11111222
BP,ioos:station:wmo:42374:1,2021-02-01T07:14:00Z,28.8662,-88.0563,3.8,21.8,11111222
BP,ioos:station:wmo:42374:1,2021-02-01T07:34:00Z,28.8662,-88.0563,3.7,21.8,11111222
BP,ioos:station:wmo:42374:1,2021-02-01T07:54:00Z,28.8662,-88.0563,3.6,21.8,11111222
BP,ioos:station:wmo:42374:1,2021-02-01T08:14:00Z,28.8662,-88.0563,4.0,21.9,11111222
BP,ioos:station:wmo:42374:1,2021-02-01T08:34:00Z,28.8662,-88.0563,3.9,21.9,11111222
BP,ioos:station:wmo:42374:1,2021-02-01T08:54:00Z,28.8662,-88.0563,3.9,21.9,11111222
BP,ioos:station:wmo:42374:1,2021-02-01T09:14:00Z,28.8662,-88.0563,3.9,21.9,11111222
BP,ioos:station:wmo:42374:1,2021-02-01T09:34:00Z,28.8662,-88.0563,4.0,21.9,11111222
BP,ioos:station:wmo:42374:1,2021-02-01T09:54:00Z,28.8662,-88.0563,4.1,22.0,11111222
BP,ioos:station:wmo:42374:1,2021-02-01T10:14:00Z,28.8662,-88.0563,4.2,22.0,11111222
BP,ioos:station:wmo:42374:1,2021-02-01T10:34:00Z,28.8662,-88.0563,4.0,22.0,11111222
BP,ioos:station:wmo:42374:1,2021-02-01T10:54:00Z,28.8662,-88.0563,3.9,21.9,11111222
BP,ioos:station:wmo:42374:1,2021-02-01T11:14:00Z,28.8662,-88.0563,4.1,21.8,11111222
BP,ioos:station:wmo:42374:1,2021-02-01T11:34:00Z,28.8662,-88.0563,3.8,21.9,11111222
BP,ioos:station:wmo:42374:1,2021-02-01T11:54:00Z,28.8662,-88.0563,4.0,21.9,11111222
BP,ioos:station:wmo:42374:1,2021-02-01T12:14:00Z,28.8662,-88.0563,3.7,21.9,11111222
BP,ioos:station:wmo:42374:1,2021-02-01T12:34:00Z,28.8662,-88.0563,4.0,21.9,11111222
BP,ioos:station:wmo:42374:1,2021-02-01T12:54:00Z,28.8662,-88.0563,4.1,21.9,11111222
BP,ioos:station:wmo:42374:1,2021-02-01T13:14:00Z,28.8662,-88.0563,4.1,22.0,11111222
BP,ioos:station:wmo:42374:1,2021-02-01T13:34:00Z,28.8662,-88.0563,4.0,21.9,11111222
BP,ioos:station:wmo:42374:1,2021-02-01T13:54:00Z,28.8662,-88.0563,3.9,21.9,11111222
BP,ioos:station:wmo:42374:1,2021-02-01T14:14:00Z,28.8662,-88.0563,4.0,21.9,11111222
BP,ioos:station:wmo:42374:1,2021-02-01T14:34:00Z,28.8662,-88.0563,4.0,21.9,11111222
BP,ioos:station:wmo:42374:1,2021-02-01T14:54:00Z,28.8662,-88.0563,3.9,21.9,11111222
BP,ioos:station:wmo:42374:1,2021-02-01T15:14:00Z,28.8662,-88.0563,4.0,21.9,11111222
BP,ioos:station:wmo:42374:1,2021-02-01T15:34:00Z,28.8662,-88.0563,4.0,21.9,11111222
BP,ioos:station:wmo:42374:1,2021-02-01T15:54:00Z,28.8662,-88.0563,3.9,21.9,11111222
BP,ioos:station:wmo:42374:1,2021-02-01T16:14:00Z,28.8662,-88.0563,3.9,21.9,11111222
BP,ioos:station:wmo:42374:1,2021-02-01T16:34:00Z,28.8662,-88.0563,3.8,21.9,11111222
BP,ioos:station:wmo:42374:1,2021-02-01T16:54:00Z,28.8662,-88.0563,3.9,21.9,11111222
BP,ioos:station:wmo:42374:1,2021-02-01T17:14:00Z,28.8662,-88.0563,3.9,21.9,11111222
BP,ioos:station:wmo:42374:1,2021-02-01T17:34:00Z,28.8662,-88.0563,3.9,21.8,11111222
BP,ioos:station:wmo:42374:1,2021-02-01T17:54:00Z,28.8662,-88.0563,3.9,21.8,11111222
BP,ioos:station:wmo:42374:1,2021-02-01T18:14:00Z,28.8662,-88.0563,3.9,21.8,11111222
BP,ioos:station:wmo:42374:1,2021-02-01T18:34:00Z,28.8662,-88.0563,3.7,21.8,11111222
BP,ioos:station:wmo:42374:1,2021-02-01T18:54:00Z,28.8662,-88.0563,4.1,21.8,11111222
BP,ioos:station:wmo:42374:1,2021-02-01T19:14:00Z,28.8662,-88.0563,3.8,21.8,11111222
BP,ioos:station:wmo:42374:1,2021-02-01T19:34:00Z,28.8662,-88.0563,3.5,21.8,11111222
BP,ioos:station:wmo:42374:1,2021-02-01T19:54:00Z,28.8662,-88.0563,3.6,21.8,11111222
BP,ioos:station:wmo:42374:1,2021-02-01T20:14:00Z,28.8662,-88.0563,3.4,21.8,11111222
BP,ioos:station:wmo:42374:1,2021-02-01T20:34:00Z,28.8662,-88.0563,3.0,21.8,11111222
BP,ioos:station:wmo:42374:1,2021-02-01T20:54:00Z,28.8662,-88.0563,3.2,21.7,11111222
BP,ioos:station:wmo:42374:1,2021-02-01T21:14:00Z,28.8662,-88.0563,3.0,21.7,11111222
BP,ioos:station:wmo:42374:1,2021-02-01T21:34:00Z,28.8662,-88.0563,2.9,21.7,11111222
BP,ioos:station:wmo:42374:1,2021-02-01T21:54:00Z,28.8662,-88.0563,3.0,21.7,11111222
BP,ioos:station:wmo:42374:1,2021-02-01T22:14:00Z,28.8662,-88.0563,3.0,21.7,11111222
BP,ioos:station:wmo:42374:1,2021-02-01T22:34:00Z,28.8662,-88.0563,2.9,21.7,11111222
BP,ioos:station:wmo:42374:1,2021-02-01T22:54:00Z,28.8662,-88.0563,3.0,21.7,11111222
BP,ioos:station:wmo:42374:1,2021-02-01T23:14:00Z,28.8662,-88.0563,2.7,21.7,11111222
BP,ioos:station:wmo:42374:1,2021-02-01T23:34:00Z,28.8662,-88.0563,2.8,21.7,11111222
BP,ioos:station:wmo:42374:1,2021-02-01T23:54:00Z,28.8662,-88.0563,2.9,21.7,11111222
BP,ioos:station:wmo:42374:1,2021-02-02T00:14:00Z,28.8662,-88.0563,2.9,21.7,11111222
BP,ioos:station:wmo:42374:1,2021-02-02T00:34:00Z,28.8662,-88.0563,2.9,21.7,11111222
BP,ioos:station:wmo:42374:1,2021-02-02T00:54:00Z,28.8662,-88.0563,2.5,21.7,11111222
BP,ioos:station:wmo:42374:1,2021-02-02T01:14:00Z,28.8662,-88.0563,2.7,21.7,11111222
BP,ioos:station:wmo:42374:1,2021-02-02T01:34:00Z,28.8662,-88.0563,3.0,21.7,11111222
BP,ioos:station:wmo:42374:1,2021-02-02T01:54:00Z,28.8662,-88.0563,2.7,21.7,11111222
BP,ioos:station:wmo:42374:1,2021-02-02T02:14:00Z,28.8662,-88.0563,2.5,21.7,11111222
BP,ioos:station:wmo:42374:1,2021-02-02T02:34:00Z,28.8662,-88.0563,3.0,21.6,11111222
BP,ioos:station:wmo:42374:1,2021-02-02T02:54:00Z,28.8662,-88.0563,2.5,21.6,11111222
BP,ioos:station:wmo:42374:1,2021-02-02T03:14:00Z,28.8662,-88.0563,2.7,21.6,11111222
BP,ioos:station:wmo:42374:1,2021-02-02T03:34:00Z,28.8662,-88.0563,2.9,21.6,11111222
BP,ioos:station:wmo:42374:1,2021-02-02T03:54:00Z,28.8662,-88.0563,2.6,21.7,11111222
BP,ioos:station:wmo:42374:1,2021-02-02T04:14:00Z,28.8662,-88.0563,2.7,21.7,11111222
BP,ioos:station:wmo:42374:1,2021-02-02T04:34:00Z,28.8662,-88.0563,2.8,21.7,11111222
BP,ioos:station:wmo:42374:1,2021-02-02T04:54:00Z,28.8662,-88.0563,3.0,21.7,11111222
BP,ioos:station:wmo:42374:1,2021-02-02T05:14:00Z,28.8662,-88.0563,3.0,21.7,11111222
BP,ioos:station:wmo:42374:1,2021-02-02T05:34:00Z,28.8662,-88.0563,3.2,21.8,11111222
BP,ioos:station:wmo:42374:1,2021-02-02T05:54:00Z,28.8662,-88.0563,3.1,21.8,11111222
BP,ioos:station:wmo:42374:1,2021-02-02T06:14:00Z,28.8662,-88.0563,3.4,21.8,11111222
BP,ioos:station:wmo:42374:1,2021-02-02T06:34:00Z,28.8662,-88.0563,3.8,21.8,11111222
BP,ioos:station:wmo:42374:1,2021-02-02T06:54:00Z,28.8662,-88.0563,3.9,21.8,11111222
BP,ioos:station:wmo:42374:1,2021-02-02T07:14:00Z,28.8662,-88.0563,4.0,21.8,11111222
BP,ioos:station:wmo:42374:1,2021-02-02T07:34:00Z,28.8662,-88.0563,3.8,21.8,11111222
BP,ioos:station:wmo:42374:1,2021-02-02T07:54:00Z,28.8662,-88.0563,3.6,21.9,11111222
BP,ioos:station:wmo:42374:1,2021-02-02T08:14:00Z,28.8662,-88.0563,3.8,21.9,11111222
BP,ioos:station:wmo:42374:1,2021-02-02T08:34:00Z,28.8662,-88.0563,4.1,21.9,11111222
BP,ioos:station:wmo:42374:1,2021-02-02T08:54:00Z,28.8662,-88.0563,4.1,21.9,11111222
BP,ioos:station:wmo:42374:1,2021-02-02T09:14:00Z,28.8662,-88.0563,3.9,21.9,11111222
BP,ioos:station:wmo:42374:1,2021-02-02T09:34:00Z,28.8662,-88.0563,3.9,21.9,11111222
BP,ioos:station:wmo:42374:1,2021-02-02T09:54:00Z,28.8662,-88.0563,4.0,21.9,11111222
BP,ioos:station:wmo:42374:1,2021-02-02T10:14:00Z,28.8662,-88.0563,4.0,21.9,11111222
BP,ioos:station:wmo:42374:1,2021-02-02T10:34:00Z,28.8662,-88.0563,3.8,21.9,11111222
BP,ioos:station:wmo:42374:1,2021-02-02T10:54:00Z,28.8662,-88.0563,3.9,21.9,11111222
BP,ioos:station:wmo:42374:1,2021-02-02T11:14:00Z,28.8662,-88.0563,4.0,21.9,11111222
BP,ioos:station:wmo:42374:1,2021-02-02T11:34:00Z,28.8662,-88.0563,3.9,21.9,11111222
BP,ioos:station:wmo:42374:1,2021-02-02T11:54:00Z,28.8662,-88.0563,3.8,21.9,11111222
BP,ioos:station:wmo:42374:1,2021-02-02T12:14:00Z,28.8662,-88.0563,3.8,21.8,11111222
BP,ioos:station:wmo:42374:1,2021-02-02T12:34:00Z,28.8662,-88.0563,4.1,21.8,11111222
BP,ioos:station:wmo:42374:1,2021-02-02T12:54:00Z,28.8662,-88.0563,4.0,21.8,11111222
BP,ioos:station:wmo:42374:1,2021-02-02T13:14:00Z,28.8662,-88.0563,3.9,21.8,11111222
BP,ioos:station:wmo:42374:1,2021-02-02T13:34:00Z,28.8662,-88.0563,3.9,21.8,11111222
BP,ioos:station:wmo:42374:1,2021-02-02T13:54:00Z,28.8662,-88.0563,3.9,21.8,11111222
BP,ioos:station:wmo:42374:1,2021-02-02T14:23:00Z,28.8662,-88.0563,3.9,21.8,11111222
BP,ioos:station:wmo:42374:1,2021-02-02T14:43:00Z,28.8662,-88.0563,3.9,21.8,11111222
BP,ioos:station:wmo:42374:1,2021-02-02T15:03:00Z,28.8662,-88.0563,3.8,21.8,11111222
BP,ioos:station:wmo:42374:1,2021-02-02T15:23:00Z,28.8662,-88.0563,3.9,21.8,11111222
BP,ioos:station:wmo:42374:1,2021-02-02T15:43:00Z,28.8662,-88.0563,3.9,21.8,11111222
BP,ioos:station:wmo:42374:1,2021-02-02T16:03:00Z,28.8662,-88.0563,3.9,21.8,11111222
BP,ioos:station:wmo:42374:1,2021-02-02T16:23:00Z,28.8662,-88.0563,3.9,21.8,11111222
BP,ioos:station:wmo:42374:1,2021-02-02T16:43:00Z,28.8662,-88.0563,3.9,21.8,11111222
BP,ioos:station:wmo:42374:1,2021-02-02T17:03:00Z,28.8662,-88.0563,3.7,21.8,11111222
BP,ioos:station:wmo:42374:1,2021-02-02T17:23:00Z,28.8662,-88.0563,4.0,21.8,11111222
BP,ioos:station:wmo:42374:1,2021-02-02T17:43:00Z,28.8662,-88.0563,3.7,21.8,11111222
BP,ioos:station:wmo:42374:1,2021-02-02T18:03:00Z,28.8662,-88.0563,3.7,21.8,11111222
BP,ioos:station:wmo:42374:1,2021-02-02T18:23:00Z,28.8662,-88.0563,3.8,21.8,11111222
BP,ioos:station:wmo:42374:1,2021-02-02T18:43:00Z,28.8662,-88.0563,3.9,21.9,11111222
BP,ioos:station:wmo:42374:1,2021-02-02T19:03:00Z,28.8662,-88.0563,4.0,21.9,11111222
BP,ioos:station:wmo:42374:1,2021-02-02T19:23:00Z,28.8662,-88.0563,3.9,21.9,11111222
BP,ioos:station:wmo:42374:1,2021-02-02T19:43:00Z,28.8662,-88.0563,4.0,21.9,11111222
BP,ioos:station:wmo:42374:1,2021-02-02T20:03:00Z,28.8662,-88.0563,3.9,21.9,11111222
BP,ioos:station:wmo:42374:1,2021-02-02T20:23:00Z,28.8662,-88.0563,3.9,21.9,11111222
BP,ioos:station:wmo:42374:1,2021-02-02T20:43:00Z,28.8662,-88.0563,3.9,21.9,11111222
BP,ioos:station:wmo:42374:1,2021-02-02T21:03:00Z,28.8662,-88.0563,3.9,21.9,11111222
BP,ioos:station:wmo:42374:1,2021-02-02T21:23:00Z,28.8662,-88.0563,4.0,21.9,11111222
BP,ioos:station:wmo:42374:1,2021-02-02T21:43:00Z,28.8662,-88.0563,4.2,21.9,11111222
BP,ioos:station:wmo:42374:1,2021-02-02T22:03:00Z,28.8662,-88.0563,4.1,21.9,11111222
BP,ioos:station:wmo:42374:1,2021-02-02T22:23:00Z,28.8662,-88.0563,4.0,22.0,11111222
BP,ioos:station:wmo:42374:1,2021-02-02T22:43:00Z,28.8662,-88.0563,4.0,22.0,11111222
BP,ioos:station:wmo:42374:1,2021-02-02T23:03:00Z,28.8662,-88.0563,4.1,22.0,11111222
BP,ioos:station:wmo:42374:1,2021-02-02T23:23:00Z,28.8662,-88.0563,4.0,22.0,11111222
BP,ioos:station:wmo:42374:1,2021-02-02T23:43:00Z,28.8662,-88.0563,3.7,22.0,11111222
BP,ioos:station:wmo:42374:1,2021-02-03T00:03:00Z,28.8662,-88.0563,4.0,22.1,11111222
BP,ioos:station:wmo:42374:1,2021-02-03T00:23:00Z,28.8662,-88.0563,3.9,22.1,11111222
BP,ioos:station:wmo:42374:1,2021-02-03T00:43:00Z,28.8662,-88.0563,4.0,22.1,11111222
BP,ioos:station:wmo:42374:1,2021-02-03T01:03:00Z,28.8662,-88.0563,4.1,22.1,11111222
BP,ioos:station:wmo:42374:1,2021-02-03T01:23:00Z,28.8662,-88.0563,4.3,22.2,11111222
BP,ioos:station:wmo:42374:1,2021-02-03T01:43:00Z,28.8662,-88.0563,4.3,22.3,11111222
BP,ioos:station:wmo:42374:1,2021-02-03T02:03:00Z,28.8662,-88.0563,3.9,22.3,11111222
BP,ioos:station:wmo:42374:1,2021-02-03T02:23:00Z,28.8662,-88.0563,4.1,22.4,11111222
BP,ioos:station:wmo:42374:1,2021-02-03T02:43:00Z,28.8662,-88.0563,4.0,22.4,11111222
BP,ioos:station:wmo:42374:1,2021-02-03T03:03:00Z,28.8662,-88.0563,4.1,22.5,11111222
BP,ioos:station:wmo:42374:1,2021-02-03T03:23:00Z,28.8662,-88.0563,4.2,22.5,11111222
BP,ioos:station:wmo:42374:1,2021-02-03T03:43:00Z,28.8662,-88.0563,3.9,22.5,11111222
BP,ioos:station:wmo:42374:1,2021-02-03T04:03:00Z,28.8662,-88.0563,4.2,22.6,11111222
BP,ioos:station:wmo:42374:1,2021-02-03T04:23:00Z,28.8662,-88.0563,4.1,22.6,11111222
BP,ioos:station:wmo:42374:1,2021-02-03T04:43:00Z,28.8662,-88.0563,4.4,22.6,11111222
BP,ioos:station:wmo:42374:1,2021-02-03T05:03:00Z,28.8662,-88.0563,4.3,22.7,11111222
BP,ioos:station:wmo:42374:1,2021-02-03T05:23:00Z,28.8662,-88.0563,4.3,22.7,11111222
BP,ioos:station:wmo:42374:1,2021-02-03T05:43:00Z,28.8662,-88.0563,4.2,22.7,11111222
BP,ioos:station:wmo:42374:1,2021-02-03T06:03:00Z,28.8662,-88.0563,4.3,22.7,11111222
BP,ioos:station:wmo:42374:1,2021-02-03T06:23:00Z,28.8662,-88.0563,4.1,22.7,11111222
BP,ioos:station:wmo:42374:1,2021-02-03T06:43:00Z,28.8662,-88.0563,4.3,22.7,11111222
BP,ioos:station:wmo:42374:1,2021-02-03T07:03:00Z,28.8662,-88.0563,4.4,22.7,11111222
BP,ioos:station:wmo:42374:1,2021-02-03T07:23:00Z,28.8662,-88.0563,4.1,22.7,11111222
BP,ioos:station:wmo:42374:1,2021-02-03T07:43:00Z,28.8662,-88.0563,4.3,22.7,11111222
BP,ioos:station:wmo:42374:1,2021-02-03T08:03:00Z,28.8662,-88.0563,4.3,22.6,11111222
BP,ioos:station:wmo:42374:1,2021-02-03T08:23:00Z,28.8662,-88.0563,4.4,22.6,11111222
BP,ioos:station:wmo:42374:1,2021-02-03T08:43:00Z,28.8662,-88.0563,4.2,22.6,11111222
BP,ioos:station:wmo:42374:1,2021-02-03T09:03:00Z,28.8662,-88.0563,4.1,22.6,11111222
BP,ioos:station:wmo:42374:1,2021-02-03T09:23:00Z,28.8662,-88.0563,4.1,22.6,11111222
BP,ioos:station:wmo:42374:1,2021-02-03T09:43:00Z,28.8662,-88.0563,4.2,22.6,11111222
BP,ioos:station:wmo:42374:1,2021-02-03T10:03:00Z,28.8662,-88.0563,4.2,22.6,11111222
BP,ioos:station:wmo:42374:1,2021-02-03T10:23:00Z,28.8662,-88.0563,4.3,22.6,11111222
BP,ioos:station:wmo:42374:1,2021-02-03T10:43:00Z,28.8662,-88.0563,4.1,22.6,11111222
BP,ioos:station:wmo:42374:1,2021-02-03T11:03:00Z,28.8662,-88.0563,4.2,22.6,11111222
BP,ioos:station:wmo:42374:1,2021-02-03T11:23:00Z,28.8662,-88.0563,4.2,22.6,11111222
BP,ioos:station:wmo:42374:1,2021-02-03T11:43:00Z,28.8662,-88.0563,4.1,22.6,11111222
BP,ioos:station:wmo:42374:1,2021-02-03T12:03:00Z,28.8662,-88.0563,4.4,22.6,11111222
BP,ioos:station:wmo:42374:1,2021-02-03T12:23:00Z,28.8662,-88.0563,4.1,22.6,11111222
BP,ioos:station:wmo:42374:1,2021-02-03T12:43:00Z,28.8662,-88.0563,4.2,22.6,11111222
BP,ioos:station:wmo:42374:1,2021-02-03T13:03:00Z,28.8662,-88.0563,4.2,22.6,11111222
BP,ioos:station:wmo:42374:1,2021-02-03T13:23:00Z,28.8662,-88.0563,4.1,22.6,11111222
BP,ioos:station:wmo:42374:1,2021-02-03T13:43:00Z,28.8662,-88.0563,4.2,22.6,11111222
BP,ioos:station:wmo:42374:1,2021-02-03T14:03:00Z,28.8662,-88.0563,4.3,22.6,11111222
BP,ioos:station:wmo:42374:1,2021-02-03T14:23:00Z,28.8662,-88.0563,4.4,22.7,11111222
BP,ioos:station:wmo:42374:1,2021-02-03T14:43:00Z,28.8662,-88.0563,4.3,22.7,11111222
BP,ioos:station:wmo:42374:1,2021-02-03T15:03:00Z,28.8662,-88.0563,4.3,22.7,11111222
BP,ioos:station:wmo:42374:1,2021-02-03T15:23:00Z,28.8662,-88.0563,4.3,22.7,11111222
BP,ioos:station:wmo:42374:1,2021-02-03T15:43:00Z,28.8662,-88.0563,4.5,22.7,11111222
BP,ioos:station:wmo:42374:1,2021-02-03T16:03:00Z,28.8662,-88.0563,4.3,22.7,11111222
BP,ioos:station:wmo:42374:1,2021-02-03T16:23:00Z,28.8662,-88.0563,4.2,22.7,11111222
BP,ioos:station:wmo:42374:1,2021-02-03T16:43:00Z,28.8662,-88.0563,4.3,22.7,11111222
BP,ioos:station:wmo:42374:1,2021-02-03T17:03:00Z,28.8662,-88.0563,4.3,22.6,11111222
BP,ioos:station:wmo:42374:1,2021-02-03T17:23:00Z,28.8662,-88.0563,4.3,22.6,11111222
BP,ioos:station:wmo:42374:1,2021-02-03T17:43:00Z,28.8662,-88.0563,4.3,22.6,11111222
BP,ioos:station:wmo:42374:1,2021-02-03T18:03:00Z,28.8662,-88.0563,4.2,22.6,11111222
BP,ioos:station:wmo:42374:1,2021-02-03T18:23:00Z,28.8662,-88.0563,4.3,22.6,11111222
BP,ioos:station:wmo:42374:1,2021-02-03T18:43:00Z,28.8662,-88.0563,4.4,22.6,11111222
BP,ioos:station:wmo:42374:1,2021-02-03T19:03:00Z,28.8662,-88.0563,4.2,22.6,11111222
BP,ioos:station:wmo:42374:1,2021-02-03T19:23:00Z,28.8662,-88.0563,4.2,22.6,11111222
BP,ioos:station:wmo:42374:1,2021-02-03T19:43:00Z,28.8662,-88.0563,4.4,22.6,11111222
BP,ioos:station:wmo:42374:1,2021-02-03T20:03:00Z,28.8662,-88.0563,4.2,22.6,11111222
BP,ioos:station:wmo:42374:1,2021-02-03T20:23:00Z,28.8662,-88.0563,4.3,22.6,11111222
BP,ioos:station:wmo:42374:1,2021-02-03T20:43:00Z,28.8662,-88.0563,4.4,22.6,11111222
BP,ioos:station:wmo:42374:1,2021-02-03T21:03:00Z,28.8662,-88.0563,4.4,22.6,11111222
BP,ioos:station:wmo:42374:1,2021-02-03T21:23:00Z,28.8662,-88.0563,4.2,22.6,11111222
BP,ioos:station:wmo:42374:1,2021-02-03T21:43:00Z,28.8662,-88.0563,4.3,22.6,11111222
BP,ioos:station:wmo:42374:1,2021-02-03T22:03:00Z,28.8662,-88.0563,4.1,22.6,11111222
BP,ioos:station:wmo:42374:1,2021-02-03T22:23:00Z,28.8662,-88.0563,4.3,22.6,11111222
BP,ioos:station:wmo:42374:1,2021-02-03T22:43:00Z,28.8662,-88.0563,4.2,22.6,11111222
BP,ioos:station:wmo:42374:1,2021-02-03T23:03:00Z,28.8662,-88.0563,4.2,22.6,11111222
BP,ioos:station:wmo:42374:1,2021-02-03T23:23:00Z,28.8662,-88.0563,4.2,22.6,11111222
BP,ioos:station:wmo:42374:1,2021-02-03T23:43:00Z,28.8662,-88.0563,4.2,22.6,11111222
BP,ioos:station:wmo:42374:1,2021-02-04T00:03:00Z,28.8662,-88.0563,4.1,22.6,11111222
BP,ioos:station:wmo:42374:1,2021-02-04T00:23:00Z,28.8662,-88.0563,4.1,22.5,11111222
BP,ioos:station:wmo:42374:1,2021-02-04T00:43:00Z,28.8662,-88.0563,4.2,22.5,11111222
BP,ioos:station:wmo:42374:1,2021-02-04T01:03:00Z,28.8662,-88.0563,4.2,22.5,11111222
BP,ioos:station:wmo:42374:1,2021-02-04T01:23:00Z,28.8662,-88.0563,4.1,22.5,11111222
BP,ioos:station:wmo:42374:1,2021-02-04T01:43:00Z,28.8662,-88.0563,4.2,22.5,11111222
BP,ioos:station:wmo:42374:1,2021-02-04T02:03:00Z,28.8662,-88.0563,4.1,22.5,11111222
BP,ioos:station:wmo:42374:1,2021-02-04T02:23:00Z,28.8662,-88.0563,4.1,22.5,11111222
BP,ioos:station:wmo:42374:1,2021-02-04T02:43:00Z,28.8662,-88.0563,4.1,22.4,11111222
BP,ioos:station:wmo:42374:1,2021-02-04T03:03:00Z,28.8662,-88.0563,4.2,22.4,11111222
BP,ioos:station:wmo:42374:1,2021-02-04T03:23:00Z,28.8662,-88.0563,3.9,22.4,11111222
BP,ioos:station:wmo:42374:1,2021-02-04T03:43:00Z,28.8662,-88.0563,4.1,22.4,11111222
BP,ioos:station:wmo:42374:1,2021-02-04T04:03:00Z,28.8662,-88.0563,4.1,22.4,11111222
BP,ioos:station:wmo:42374:1,2021-02-04T04:23:00Z,28.8662,-88.0563,3.9,22.4,11111222
BP,ioos:station:wmo:42374:1,2021-02-04T04:43:00Z,28.8662,-88.0563,4.0,22.4,11111222
BP,ioos:station:wmo:42374:1,2021-02-04T05:03:00Z,28.8662,-88.0563,4.1,22.4,11111222
BP,ioos:station:wmo:42374:1,2021-02-04T05:23:00Z,28.8662,-88.0563,4.2,22.4,11111222
BP,ioos:station:wmo:42374:1,2021-02-04T05:43:00Z,28.8662,-88.0563,4.0,22.4,11111222
BP,ioos:station:wmo:42374:1,2021-02-04T06:03:00Z,28.8662,-88.0563,4.2,22.3,11111222
BP,ioos:station:wmo:42374:1,2021-02-04T06:23:00Z,28.8662,-88.0563,4.2,22.3,11111222
BP,ioos:station:wmo:42374:1,2021-02-04T06:43:00Z,28.8662,-88.0563,4.1,22.3,11111222
BP,ioos:station:wmo:42374:1,2021-02-04T07:03:00Z,28.8662,-88.0563,3.9,22.3,11111222
BP,ioos:station:wmo:42374:1,2021-02-04T07:23:00Z,28.8662,-88.0563,4.1,22.2,11111222
BP,ioos:station:wmo:42374:1,2021-02-04T07:43:00Z,28.8662,-88.0563,4.0,22.1,11111222
BP,ioos:station:wmo:42374:1,2021-02-04T08:03:00Z,28.8662,-88.0563,3.9,22.0,11111222
BP,ioos:station:wmo:42374:1,2021-02-04T08:23:00Z,28.8662,-88.0563,3.8,22.0,11111222
BP,ioos:station:wmo:42374:1,2021-02-04T08:43:00Z,28.8662,-88.0563,3.9,22.0,11111222
BP,ioos:station:wmo:42374:1,2021-02-04T09:03:00Z,28.8662,-88.0563,4.1,22.2,11111222
BP,ioos:station:wmo:42374:1,2021-02-04T09:23:00Z,28.8662,-88.0563,3.9,22.3,11111222
BP,ioos:station:wmo:42374:1,2021-02-04T09:43:00Z,28.8662,-88.0563,4.1,22.3,11111222
BP,ioos:station:wmo:42374:1,2021-02-04T10:03:00Z,28.8662,-88.0563,4.1,22.3,11111222
BP,ioos:station:wmo:42374:1,2021-02-04T10:23:00Z,28.8662,-88.0563,4.2,22.3,11111222
BP,ioos:station:wmo:42374:1,2021-02-04T10:43:00Z,28.8662,-88.0563,4.2,22.3,11111222
BP,ioos:station:wmo:42374:1,2021-02-04T11:03:00Z,28.8662,-88.0563,4.1,22.3,11111222
BP,ioos:station:wmo:42374:1,2021-02-04T11:23:00Z,28.8662,-88.0563,4.1,22.3,11111222
BP,ioos:station:wmo:42374:1,2021-02-04T11:43:00Z,28.8662,-88.0563,4.0,22.3,11111222
BP,ioos:station:wmo:42374:1,2021-02-04T12:03:00Z,28.8662,-88.0563,4.1,22.2,11111222
BP,ioos:station:wmo:42374:1,2021-02-04T12:23:00Z,28.8662,-88.0563,4.1,22.2,11111222
BP,ioos:station:wmo:42374:1,2021-02-04T12:43:00Z,28.8662,-88.0563,4.2,22.2,11111222
BP,ioos:station:wmo:42374:1,2021-02-04T13:03:00Z,28.8662,-88.0563,4.0,22.2,11111222
BP,ioos:station:wmo:42374:1,2021-02-04T13:23:00Z,28.8662,-88.0563,4.1,22.2,11111222
BP,ioos:station:wmo:42374:1,2021-02-04T13:43:00Z,28.8662,-88.0563,3.8,22.1,11111222
BP,ioos:station:wmo:42374:1,2021-02-04T14:03:00Z,28.8662,-88.0563,4.0,22.1,11111222
BP,ioos:station:wmo:42374:1,2021-02-04T14:23:00Z,28.8662,-88.0563,4.2,22.1,11111222
BP,ioos:station:wmo:42374:1,2021-02-04T14:43:00Z,28.8662,-88.0563,4.0,22.1,11111222
BP,ioos:station:wmo:42374:1,2021-02-04T15:03:00Z,28.8662,-88.0563,4.2,22.1,11111222
BP,ioos:station:wmo:42374:1,2021-02-04T15:23:00Z,28.8662,-88.0563,3.9,22.0,11111222
BP,ioos:station:wmo:42374:1,2021-02-04T15:43:00Z,28.8662,-88.0563,3.9,22.1,11111222
BP,ioos:station:wmo:42374:1,2021-02-04T16:03:00Z,28.8662,-88.0563,3.9,22.1,11111222
BP,ioos:station:wmo:42374:1,2021-02-04T16:23:00Z,28.8662,-88.0563,3.9,22.0,11111222
BP,ioos:station:wmo:42374:1,2021-02-04T16:43:00Z,28.8662,-88.0563,4.0,22.0,11111222
BP,ioos:station:wmo:42374:1,2021-02-04T17:03:00Z,28.8662,-88.0563,4.1,22.0,11111222
BP,ioos:station:wmo:42374:1,2021-02-04T17:23:00Z,28.8662,-88.0563,4.1,21.9,11111222
BP,ioos:station:wmo:42374:1,2021-02-04T17:43:00Z,28.8662,-88.0563,3.8,21.9,11111222
BP,ioos:station:wmo:42374:1,2021-02-04T18:03:00Z,28.8662,-88.0563,3.8,21.9,11111222
BP,ioos:station:wmo:42374:1,2021-02-04T18:23:00Z,28.8662,-88.0563,3.8,21.8,11111222
BP,ioos:station:wmo:42374:1,2021-02-04T18:43:00Z,28.8662,-88.0563,4.0,21.8,11111222
BP,ioos:station:wmo:42374:1,2021-02-04T19:03:00Z,28.8662,-88.0563,3.3,21.8,11111222
BP,ioos:station:wmo:42374:1,2021-02-04T19:23:00Z,28.8662,-88.0563,3.1,21.8,11111222
BP,ioos:station:wmo:42374:1,2021-02-04T19:43:00Z,28.8662,-88.0563,3.1,21.7,11111222
BP,ioos:station:wmo:42374:1,2021-02-04T20:03:00Z,28.8662,-88.0563,2.9,21.7,11111222
BP,ioos:station:wmo:42374:1,2021-02-04T20:23:00Z,28.8662,-88.0563,2.8,21.7,11111222
BP,ioos:station:wmo:42374:1,2021-02-04T20:43:00Z,28.8662,-88.0563,2.8,21.7,11111222
BP,ioos:station:wmo:42374:1,2021-02-04T21:03:00Z,28.8662,-88.0563,3.3,21.7,11111222
BP,ioos:station:wmo:42374:1,2021-02-04T21:23:00Z,28.8662,-88.0563,2.9,21.7,11111222
BP,ioos:station:wmo:42374:1,2021-02-04T21:43:00Z,28.8662,-88.0563,2.9,21.7,11111222